Location: Brookview Estates
(36.0476°N, 86.6931°W)
Time: 03:44:51
(UTC+00:00)

Cosmos 2082 - Pass Details

Date: 30 March 2020
Orbit: 833 x 855 km, 71.0° (Epoch: 04 June)

Event Time Altitude Azimuth Distance (km) Brightness Sun altitude
Exits shadow 10:25:43 - 200° (SSW) 3,033 6.2 -14.6°
Reaches altitude 10° 10:27:13 10° 200° (SSW) 2,457 5.8 -14.3°
Maximum altitude 10:32:52 89° 282° (WNW) 853 3.7 -13.2°
Drops below altitude 10° 10:38:36 10° 21° (NNE) 2,485 6.6 -12.1°
Sets 10:41:04 0° 22° (NNE) 3,427 7.4 -11.6°
